Regional Weather Roundup
Issued by NWS Upton, NY

Current Version | Previous Version | Text Only | Print | Product List | Glossary Off
Versions: 1 2 3 4 5 6 7 8 9 10 11 12 13 14 15 16 17 18 19 20 21 22 23 24 25 26 27 28 29 30 31 32 33 34 35 36 37 38 39 40 41 42 43 44 45 46 47 48 49 50
000 ASUS41 KOKX 250205 RWROKX REGIONAL WEATHER ROUNDUP NATIONAL WEATHER SERVICE NEW YORK NY 900 PM EST WED DEC 24 2014 NOTE: "FAIR" INDICATES FEW OR NO CLOUDS BELOW 12,000 FEET WITH NO SIGNIFICANT WEATHER AND/OR OBSTRUCTIONS TO VISIBILITY. NYZ071-072-176-178-NJZ106-104-250300- NEW YORK CITY METRO AREA CITY SKY/WX TMP DP RH WIND PRES REMARKS CENTRAL PARK CLOUDY 57 57 100 CALM 29.60F FOG LAGUARDIA APRT FOG 54 54 100 S5 29.58F VSB 1/2 KENNEDY INTL FOG 53 52 96 S15 29.60F VSB 1/4 NEWARK/LIBERTY LGT RAIN 53 53 100 E5 29.57F VSB 1/4 BRNX BOT. GARD N/A 54 54 100 SE2 29.60F TETERBORO DRIZZLE 52 52 100 CALM 29.56F FOG $$ NYZ177-179-078>081-250300- LONG ISLAND NEW YORK CITY SKY/WX TMP DP RH WIND PRES REMARKS FARMINGDALE CLOUDY 56 56 100 SW20G25 29.63R FOG ISLIP FOG 59 58 96 S16G26 29.62R VSB 3/4 SHIRLEY LGT RAIN 59 58 96 S18G25 29.65R FOG WESTHAMPTON FOG 59 57 93 S12 29.65R VSB 3/4 MONTAUK POINT N/A 58 57 97 S9G23 29.65F $$ NYZ052-065-067-250300- HUDSON VALLEY CITY SKY/WX TMP DP RH WIND PRES REMARKS WHITE PLAINS FOG 55 54 96 SE8 29.58F VSB 1/8 NEWBURGH DRZL/FOG 46 46 100 CALM 29.58F VSB 1 MONTGOMERY CLOUDY 47 46 97 CALM 29.56F FOG POUGHKEEPSIE CLOUDY 47 45 93 NE3 29.56F FOG ALBANY DRIZZLE 46 43 89 S7 29.56F FOG $$ NJZ001-105-106-008-010-013-015-019>022-104-250300- NEW JERSEY CITY SKY/WX TMP DP RH WIND PRES REMARKS NEWARK/LIBERTY LGT RAIN 53 53 100 E5 29.57F VSB 1/4 TETERBORO DRIZZLE 52 52 100 CALM 29.56F FOG CALDWELL CLOUDY 49 48 97 NW3 29.57F FOG MORRISTOWN NOT AVBL SOMERVILLE CLOUDY 50 49 96 NW3 29.58F FOG SUSSEX FOG 46 46 100 CALM 29.55F VSB 1/2 ANDOVER NOT AVBL TRENTON CLOUDY 61 59 93 SW10 29.59F MILLVILLE CLOUDY 59 59 100 S3 29.61F FOG ATLANTIC CITY FOG 58 57 97 S7 29.62F VSB 1/2 WRIGHTSTOWN CLOUDY 61 61 100 S8 29.56F FOG TOMS RIVER CLOUDY 59 59 100 S12 29.60F BELMAR CLOUDY 61 57 88 S10 29.59F $$ PAZ047>061-062-071-250300- EASTERN PENNSYLVANIA CITY SKY/WX TMP DP RH WIND PRES REMARKS PHILADELPHIA CLOUDY 61 59 93 S10 29.60F ALLENTOWN CLOUDY 52 48 87 CALM 29.57F FOG SCRANTON CLOUDY 56 53 90 VRB7 29.51F $$ CTZ002-004>006-009-010-012-RIZ004-006-007-MAZ004-011-015-250300- SOUTHERN NEW ENGLAND IN CT CITY SKY/WX TMP DP RH WIND PRES REMARKS BRADLEY INTL DRIZZLE 43 42 97 CALM 29.62F FOG HARTFORD LGT RAIN 43 42 97 CALM 29.64R FOG DANBURY CLOUDY 56 54 93 S3 29.61S FOG WTRBRY/OXFORD FOG 55 54 94 S9 29.62S VSB 1/2 BRIDGEPORT LGT RAIN 53 53 100 SW7 29.62R FOG MERIDEN LGT RAIN 44 42 93 CALM 29.64R FOG NEW HAVEN FOG 54 52 93 CALM 29.64R VSB 1/4 CHESTER FOG 61 61 100 S13G23 29.64R VSB 1/4 GROTON LGT RAIN 52 52 100 S10 29.63F VSB 1/4 WILLIMANTIC LGT RAIN 64 61 90 SW12G25 29.61S IN RI CITY SKY/WX TMP DP RH WIND PRES REMARKS PROVIDENCE LGT RAIN 61 60 97 S15 29.65F BLOCK ISLAND CLOUDY 57 55 94 S20G26 29.66F WESTERLY LGT RAIN 55 55 100 S10 29.67F VSB 1/2 IN MA CITY SKY/WX TMP DP RH WIND PRES REMARKS BOSTON LGT RAIN 45 45 100 N5 29.65F VSB 1 WORCESTER FOG 39 39 100 NE5 29.63F VSB 1/4 WESTFIELD CLOUDY 42 40 92 N6 29.63F FOG PROVINCETOWN CLOUDY 57 55 94 S21G28 29.70F VSB 1 NANTUCKET LGT RAIN 55 54 96 S18 29.75F VSB 1/4 $$ ANZ330-335-338-340-345-350-353-355-250300- COASTAL MARINE OBSERVATIONS STATION/POSITION TIME SKY/WX TEMP WIND PRES VSBY WAVE AIR SEA DIR/SP/G HT/PER (UTC) (F) (DEG/KT/KT) (MB) (MI) (FT/S) NY HARB ENTRANCE 0200 52 47 210/ 19/ 21 1003.1 5/ 5 4S FIRE IS 0200 47 N/A 5/ 6 20S FIRE ISLAND 0100 57 51 1003.4 5/ 5 23SW MTP 0200 N/A 5/ 8 HUDSON CANYON 0200 61 55 190/ 21/ 25 1004.0 6/ 6 EXECUTION ROCKS 0200 51 42 210/ 8/ 12 N/A WESTERN LI SOUND 0200 53 230/ 12/ 21 N/A 1/ 4 CENTRAL LI SOUND 0100 54 44 190/ 17/ 23 N/A 3/ 4 EASTERN LI SOUND NOT AVBL ROBBINS REEF 0200 55 1000.5 $$ >>>>>>>>>>>>>>>>>>>>>>>>>>>> KEY <<<<<<<<<<<<<<<<<<<<<<<<<<< > < > SKY/WX - SKY CONDITION/PRESENT WEATHER < > TMP - TEMPERATURE IN FAHRENHEIT < > DP - DEWPOINT IN FAHRENHEIT < > RH - RELATIVE HUMIDITY IN PERCENT < > WIND - DIRECTION AND SPEED IN MPH < > PRES - MEAN SEA LEVEL PRESSURE IN INCHES OF HG < > WCI - WIND CHILL INDEX < > VSB - VISIBILITY IN MILES < > HX - HEAT INDEX < > TC - TEMPERATURE IN CELSIUS < > VRB - VARIABLE WIND DIRECTION < > < >>>>>>>>>>>>>>>>>>>>>>>>>>>> KEY <<<<<<<<<<<<<<<<<<<<<<<<<<<

USA.gov is the U.S. government's official web portal to all federal, state and local government web resources and services.